Temperature
25 24 23 24 25 25 25 24 24 24 25 24 23 22 22 22 22 21 21 20 19 19 18 18 18 18 17 17 17 17 17 16 16 16 16 16 16 15 15 15 15 15 15 15
24 24 25 25 25 25 24 24 24 24 25 24 23 22 23 22 21 21 21 20 19 19 18 18 18 17 17 17 17 17 17 16 16 16 16 16 15 15 15 15 15 15 15 15
24 25 26 25 25 24 24 24 24 24 24 24 23 21 22 22 22 21 21 20 19 19 18 18 17 17 17 17 17 17 16 16 16 16 16 15 15 15 15 15 15 15 15 15
25 25 25 25 24 24 23 24 24 24 23 22 23 21 21 22 21 21 21 20 20 19 19 18 18 17 17 17 17 16 16 16 16 16 16 15 15 15 15 15 15 15 14 14
24 25 24 24 24 24 24 24 24 24 23 22 23 22 21 22 21 21 21 20 20 19 19 18 17 17 17 16 16 16 16 16 16 16 16 15 15 15 15 15 14 14 14 14
25 25 25 24 24 25 24 24 24 24 23 21 22 22 21 21 22 21 21 20 20 19 19 18 17 17 17 16 16 16 16 16 16 16 15 15 15 15 15 14 14 14 14 14
24 25 25 25 24 24 24 22 21 21 21 21 23 22 21 22 22 22 21 21 20 19 19 18 17 17 16 16 16 16 16 15 15 15 15 15 15 15 15 14 14 14 14 14
24 23 24 24 24 23 23 23 21 21 21 22 23 22 21 22 22 22 21 20 20 19 18 18 18 17 16 16 16 16 15 15 15 15 15 15 15 15 15 14 14 14 14 14
24 23 25 25 25 24 23 23 24 23 22 22 22 22 22 22 21 21 21 20 20 19 18 18 17 17 16 16 16 15 15 15 15 15 15 15 15 14 14 14 14 14 14 14
24 23 24 24 24 24 24 23 23 22 21 21 22 22 21 20 21 21 21 20 20 19 18 18 17 17 16 16 15 15 15 15 15 15 14 14 14 14 14 14 14 14 14 14
24 23 23 24 23 23 23 23 23 22 22 21 20 20 22 21 21 21 21 20 20 19 18 18 17 17 16 16 15 15 15 15 15 14 14 14 14 14 14 14 14 13 13 13
23 23 22 23 24 24 24 23 23 21 21 21 20 20 23 22 22 21 20 20 19 19 18 18 17 16 16 15 15 15 15 14 14 14 14 14 14 13 13 13 13 13 13 13
22 22 21 22 22 23 23 23 23 22 21 21 20 20 22 22 21 21 20 19 19 18 18 17 17 16 16 15 15 15 14 14 14 14 14 14 13 13 13 13 13 13 13 13
20 21 21 21 22 22 22 22 23 22 20 20 21 21 21 21 20 20 19 19 18 18 18 17 16 16 15 15 15 14 14 14 14 13 13 13 13 13 13 13 13 12 12 12
21 21 22 22 23 23 22 22 22 22 21 21 21 21 21 21 20 20 19 18 18 17 17 17 16 16 15 15 14 14 14 14 13 13 13 13 12 12 12 12 12 12 12 12
21 21 21 21 22 22 22 22 22 21 21 21 21 21 21 21 20 19 18 18 17 17 16 16 16 15 15 14 14 14 14 13 13 13 13 12 12 12 12 12 12 12 12 11
20 20 20 20 21 21 20 21 21 21 22 21 20 20 20 20 19 18 18 17 16 16 16 15 15 15 14 14 14 13 13 13 13 12 12 12 12 12 12 11 11 11 11 11
20 20 19 19 20 19 20 22 22 21 21 21 20 20 19 19 18 18 17 16 16 15 15 15 14 14 14 13 13 13 13 13 12 12 12 12 11 11 11 11 11 11 11 11
20 19 19 19 19 19 20 21 21 20 20 20 20 19 19 18 18 17 17 16 15 15 14 14 14 13 13 13 13 13 12 12 12 12 11 11 11 11 11 10 10 10 10 10
19 19 19 19 18 18 19 20 20 20 18 19 19 18 18 18 16 16 16 15 14 14 13 13 13 13 13 13 12 12 12 12 11 11 11 11 10 10 10 10 10 10 10 10
18 18 18 18 18 19 19 20 20 18 17 18 18 18 17 17 16 15 15 14 13 13 13 12 12 12 12 12 12 11 11 11 11 11 10 10 10 10 10 10 9 9 9 9
18 18 18 18 18 17 18 19 18 17 18 17 17 16 16 15 15 14 14 13 13 12 12 12 12 11 11 11 11 11 11 10 10 10 10 10 9 9 9 9 9 9 9 9
18 18 17 17 17 17 17 17 17 17 16 16 16 15 15 14 14 13 13 12 12 12 11 11 11 11 10 10 10 10 10 10 10 10 9 9 9 9 8 8 8 8 8 8
18 18 18 17 17 17 16 16 16 16 15 15 15 14 14 14 13 13 12 12 11 11 11 11 10 10 10 10 10 10 9 9 9 9 9 9 8 8 8 8 8 8 8 8
16 17 17 16 16 16 16 15 15 15 14 14 14 13 13 13 12 12 12 11 11 11 10 10 10 10 9 9 9 9 9 9 9 8 8 8 8 7 7 7 7 7 7 7
16 16 16 15 15 15 14 14 14 14 13 13 13 12 12 12 12 11 11 11 10 10 10 9 9 9 9 9 8 8 8 8 8 8 8 7 7 7 7 7 6 7 7 7
Wind_Speed
6 6 6 4 4 5 5 5 4 2 2 3 3 3 4 5 5 5 5 5 5 5 4 5 5 4 4 3 3 3 3 3 2 2 2 2 1 1 2 1 2 3 3 4
5 7 5 3 4 5 6 6 5 1 2 2 3 3 3 5 5 5 5 5 5 5 5 5 5 4 3 3 3 3 3 3 3 2 2 1 2 1 2 2 2 1 2 3
7 3 2 4 6 7 7 6 4 3 2 4 4 5 5 6 6 5 5 5 5 6 7 5 5 4 3 3 2 2 3 3 3 2 2 2 2 1 2 2 1 1 2 2
5 4 3 5 6 6 6 5 5 5 5 4 6 4 5 6 7 6 6 5 5 5 6 6 5 4 4 3 2 2 2 3 3 3 3 2 1 1 1 2 1 1 2 2
4 3 4 5 5 5 5 6 7 8 8 8 8 5 3 6 6 7 6 6 5 6 6 6 6 4 3 3 2 1 2 3 3 2 3 2 2 2 1 2 2 2 2 2
7 5 4 4 5 6 5 7 10 9 7 7 8 6 2 4 6 7 7 7 6 6 6 6 6 5 4 4 3 2 2 2 2 2 2 3 3 2 2 2 2 1 1 1
8 8 6 4 5 6 6 6 4 4 5 4 4 2 1 4 5 5 6 7 7 6 6 5 6 5 4 4 4 3 2 2 2 2 2 2 3 3 3 2 2 2 2 1
7 6 7 5 5 4 7 7 4 4 4 3 2 2 4 7 7 6 5 6 7 6 5 5 6 6 5 5 4 3 2 2 2 1 1 1 2 2 2 2 2 2 2 2
5 3 5 5 5 6 7 6 7 7 9 6 2 3 6 7 7 5 5 5 6 6 5 5 5 6 5 4 5 4 3 2 1 1 0 1 2 2 1 2 1 1 1 1
7 7 4 5 5 7 7 6 5 4 4 4 3 2 4 7 6 6 6 5 5 5 5 4 4 4 5 4 4 4 3 3 2 2 1 1 1 1 1 1 1 1 0 0
8 7 5 6 7 7 7 7 6 5 4 4 3 1 4 6 6 5 5 5 5 5 5 5 4 4 4 4 3 3 2 2 2 2 2 2 1 1 1 1 0 1 1 0
5 6 8 7 6 6 6 7 6 4 5 5 3 0 4 6 6 5 5 5 4 5 4 4 5 4 4 3 3 3 2 1 1 2 1 1 1 1 1 1 1 0 1 1
5 5 7 5 5 6 6 7 7 6 6 5 5 2 5 6 6 5 5 5 4 4 4 4 4 4 4 3 3 3 3 2 1 1 1 1 1 1 1 1 1 1 1 0
3 6 8 8 4 3 6 7 7 7 6 6 5 2 3 4 4 4 4 5 4 3 4 4 3 3 3 3 3 2 2 2 1 1 1 1 2 1 1 1 1 1 1 1
4 7 10 10 8 7 8 8 8 9 8 7 6 3 1 2 3 4 4 4 4 3 3 3 3 2 2 2 2 2 1 1 1 1 1 1 1 1 1 1 1 1 1 1
5 7 9 10 9 8 9 9 9 9 8 8 7 4 1 1 3 3 4 4 3 2 3 2 2 2 2 1 2 2 2 1 1 1 1 1 1 1 1 2 1 1 1 1
5 8 9 8 6 8 9 8 8 6 5 6 6 3 2 3 3 2 2 3 3 3 3 3 3 3 2 1 1 1 1 2 2 1 1 1 1 1 0 1 1 1 1 1
8 9 6 7 8 9 2 1 1 2 3 2 2 2 3 4 3 2 3 4 3 3 3 2 2 2 2 2 1 1 1 2 1 1 1 1 1 1 1 1 1 1 1 0
8 7 6 6 7 7 3 1 1 2 3 1 0 2 3 3 2 1 4 4 3 3 3 2 2 2 1 1 2 1 1 1 2 2 1 1 1 1 1 1 1 1 1 1
7 8 7 7 7 6 0 3 2 1 2 2 1 1 1 1 1 1 3 3 3 3 3 2 2 2 2 2 2 2 1 1 1 1 1 1 1 1 1 1 1 0 0 0
6 7 9 9 9 4 2 3 1 2 1 4 3 2 2 1 1 2 3 3 3 3 2 2 1 1 1 1 2 2 2 2 2 2 2 1 0 1 1 1 1 1 1 0
5 4 6 6 7 3 3 1 1 2 5 5 5 4 3 3 3 3 3 3 3 3 2 1 1 1 1 1 1 2 2 2 3 2 2 1 0 1 0 1 1 1 1 1
3 2 2 3 2 3 4 4 4 4 4 4 4 4 3 2 2 2 2 2 2 1 1 1 0 1 1 1 1 1 1 2 2 1 1 1 1 1 1 1 1 1 1 1
2 2 4 4 1 2 3 4 4 5 4 4 4 4 3 2 2 1 1 1 1 1 1 1 0 1 0 0 1 1 1 1 1 1 1 1 1 1 1 1 0 1 1 1
4 4 5 5 2 2 1 3 4 4 4 4 4 3 3 2 2 2 1 0 1 1 1 1 1 1 0 1 1 1 1 1 2 2 2 1 1 1 1 1 1 1 2 2
5 5 4 4 3 3 2 3 3 3 3 3 2 2 2 2 1 2 1 1 1 1 1 1 1 1 2 2 2 2 1 1 2 2 2 1 1 1 1 1 2 2 2 1
Wind_Direction
224 234 239 241 240 260 284 275 268 243 155 166 201 203 179 168 167 158 157 151 148 146 143 127 123 125 126 121 108 104 115 101 96 97 104 103 88 93 87 70 58 35 29 61
235 235 250 261 264 262 267 268 272 244 160 196 208 233 204 172 173 169 165 160 161 153 144 137 133 136 145 142 129 134 115 111 100 84 99 121 120 117 108 89 69 65 51 49
234 236 236 255 255 260 263 271 282 287 273 237 229 242 221 176 169 164 170 166 167 160 151 152 150 150 146 130 117 112 122 119 124 127 95 77 79 87 100 110 100 64 84 83
248 241 249 256 262 270 270 287 287 281 268 255 236 252 226 187 172 177 177 171 170 159 155 156 153 151 153 141 128 145 136 127 126 124 118 125 127 139 142 137 142 137 104 105
244 238 251 260 272 277 278 290 281 272 269 270 254 253 219 173 172 179 173 169 167 166 164 154 152 156 162 146 144 158 121 111 117 132 136 155 142 138 127 129 145 152 132 133
241 232 236 257 268 267 273 272 263 253 254 260 251 241 214 170 174 166 163 168 165 158 157 150 148 156 157 140 139 135 130 121 126 125 143 157 151 149 148 160 164 159 144 158
235 224 197 224 251 241 247 267 267 240 220 236 214 208 151 116 116 119 141 153 154 155 151 150 154 154 150 149 151 156 150 142 127 144 158 151 166 166 167 177 176 161 170 188
248 224 189 201 235 252 250 249 261 284 285 287 219 181 122 108 97 102 115 133 149 153 152 159 162 154 156 154 152 158 157 153 146 160 177 164 144 149 141 171 180 178 188 194
281 258 174 196 226 248 261 258 273 287 288 281 235 146 131 127 130 133 137 133 143 150 156 164 161 151 152 155 158 163 161 157 152 178 184 165 137 125 153 179 175 152 186 187
286 283 221 195 217 224 249 277 278 271 293 287 268 208 157 153 154 152 147 141 143 144 151 156 149 151 156 154 158 158 166 173 169 173 180 177 160 161 173 162 139 156 211 160
278 269 241 207 218 233 227 234 253 262 262 281 290 2 92 126 124 129 133 137 143 144 147 157 148 147 150 148 148 149 161 167 179 194 189 186 189 187 164 131 203 208 218 226
274 276 260 231 215 226 249 252 254 264 277 277 275 18 91 111 116 114 111 116 123 129 139 146 142 144 145 150 157 161 171 191 201 198 185 185 174 152 155 167 168 203 219 210
307 274 264 228 207 204 227 242 253 261 267 273 267 163 120 112 113 113 113 108 110 116 117 113 124 139 146 153 162 174 176 185 200 190 162 152 176 198 220 218 179 205 243 221
300 267 268 272 281 260 245 250 252 258 260 265 264 217 155 127 125 116 113 112 108 115 107 103 109 122 126 137 141 159 175 169 165 160 165 169 187 206 247 252 221 216 228 216
257 270 274 280 284 279 271 261 257 255 261 266 281 282 206 126 120 120 112 106 103 97 98 100 106 112 113 122 133 137 133 128 131 126 139 167 183 194 272 278 269 247 245 234
257 272 281 277 271 268 266 256 248 247 253 260 272 280 9 84 83 87 92 95 94 93 81 74 78 96 120 121 119 127 142 136 118 101 74 67 64 72 329 311 311 322 275 255
267 273 282 278 270 272 261 249 242 245 248 265 269 277 56 73 74 72 74 97 96 93 76 66 64 61 50 89 113 117 127 116 121 116 83 67 60 69 344 321 330 319 283 240
264 274 274 275 276 261 258 63 210 242 271 291 314 45 75 69 65 65 77 88 78 77 71 67 64 57 38 29 34 121 92 97 99 89 78 69 71 68 27 22 17 345 4 54
248 257 262 262 267 268 242 210 218 237 263 313 319 93 80 67 46 75 75 79 79 73 64 57 62 53 30 37 40 64 128 122 101 83 68 63 66 68 73 73 41 343 6 3
238 245 252 259 264 262 285 84 66 319 249 52 50 91 101 63 288 319 45 65 66 64 57 55 57 41 38 42 45 44 52 84 83 77 66 71 80 102 131 154 170 280 211 250
226 233 238 251 258 262 50 61 90 240 29 62 43 46 39 326 359 59 50 55 65 65 50 32 32 38 35 33 37 35 31 31 40 44 45 64 112 172 169 163 182 200 165 127
252 248 244 251 253 245 55 50 34 32 44 48 44 45 56 53 49 59 58 53 55 60 49 35 44 46 38 40 50 23 27 27 29 38 31 8 329 284 242 166 209 206 186 193
247 266 291 290 308 42 46 40 38 35 39 39 37 33 45 41 45 46 50 50 46 64 62 37 129 117 55 22 33 36 38 44 30 15 341 325 334 321 346 220 219 213 209 201
283 303 280 282 277 15 37 35 33 30 28 33 36 30 23 20 21 26 6 41 64 22 21 8 313 180 179 8 12 58 69 48 358 323 306 296 322 337 329 314 266 225 240 233
306 299 279 270 282 331 9 29 22 14 13 16 23 21 10 1 354 345 324 337 108 33 33 22 349 302 321 52 42 57 57 8 336 324 324 323 328 309 304 316 290 254 233 216
269 275 270 281 314 308 313 348 345 340 336 344 351 349 359 357 346 337 338 2 63 79 47 28 357 1 15 31 24 29 44 7 332 325 327 320 317 313 311 315 330 326 281 261
Height
1483 1485 1487 1484 1482 1483 1484 1487 1489 1486 1483 1488 1493 1494 1494 1496 1498 1500 1503 1505 1507 1509 1512 1513 1514 1515 1516 1517 1517 1518 1518 1519 1520 1521 1521 1522 1523 1523 1524 1524 1525 1525 1526 1527
1483 1485 1481 1480 1480 1482 1484 1488 1488 1484 1482 1487 1492 1493 1492 1493 1496 1499 1501 1503 1506 1508 1510 1512 1513 1514 1515 1516 1517 1518 1518 1519 1520 1520 1520 1522 1522 1523 1523 1524 1524 1525 1525 1526
1483 1481 1479 1480 1481 1483 1485 1487 1487 1487 1484 1484 1491 1496 1492 1491 1494 1497 1499 1502 1504 1506 1508 1510 1512 1513 1514 1515 1516 1517 1518 1518 1518 1519 1520 1521 1521 1522 1522 1523 1524 1524 1524 1525
1479 1477 1479 1481 1482 1483 1488 1482 1483 1485 1491 1493 1490 1504 1493 1487 1491 1494 1497 1500 1502 1504 1506 1508 1510 1512 1513 1514 1516 1516 1517 1517 1518 1519 1519 1520 1520 1521 1522 1522 1523 1523 1524 1524
1479 1477 1479 1482 1482 1481 1484 1481 1482 1484 1488 1491 1488 1495 1493 1485 1491 1492 1494 1497 1500 1503 1505 1507 1509 1511 1512 1513 1514 1515 1516 1517 1517 1518 1518 1519 1519 1520 1521 1521 1522 1522 1523 1523
1475 1475 1477 1479 1479 1480 1480 1482 1481 1481 1487 1499 1488 1493 1495 1487 1487 1488 1491 1494 1497 1500 1503 1505 1508 1509 1511 1512 1513 1514 1515 1516 1516 1516 1517 1517 1518 1519 1519 1520 1520 1521 1521 1522
1476 1474 1475 1478 1481 1480 1481 1490 1498 1499 1501 1497 1480 1487 1491 1482 1481 1485 1488 1492 1495 1499 1501 1504 1506 1508 1509 1511 1512 1513 1514 1514 1515 1515 1515 1516 1517 1517 1518 1519 1520 1520 1520 1520
1481 1481 1474 1476 1479 1483 1482 1485 1501 1507 1501 1491 1481 1488 1487 1480 1483 1486 1489 1491 1494 1498 1500 1502 1504 1506 1508 1509 1510 1511 1512 1513 1513 1514 1514 1514 1515 1516 1516 1517 1518 1519 1519 1519
1479 1479 1471 1473 1475 1478 1482 1481 1478 1487 1488 1492 1487 1483 1483 1481 1484 1486 1489 1492 1494 1497 1499 1501 1503 1505 1506 1508 1509 1510 1511 1511 1512 1512 1513 1513 1513 1514 1515 1515 1516 1517 1517 1518
1475 1481 1472 1472 1474 1476 1477 1478 1482 1490 1499 1501 1490 1486 1488 1485 1484 1485 1488 1491 1494 1496 1498 1500 1502 1503 1505 1506 1507 1508 1510 1510 1511 1511 1511 1512 1512 1512 1513 1514 1514 1515 1516 1516
1474 1480 1476 1474 1477 1478 1478 1480 1481 1484 1486 1498 1503 1497 1477 1480 1482 1484 1487 1490 1493 1495 1497 1499 1501 1503 1504 1505 1506 1507 1508 1509 1509 1509 1510 1510 1510 1511 1512 1512 1513 1513 1514 1514
1475 1478 1479 1473 1469 1469 1472 1475 1479 1491 1491 1487 1495 1497 1476 1478 1481 1484 1487 1490 1492 1494 1496 1498 1500 1502 1503 1504 1505 1506 1507 1507 1508 1508 1508 1508 1509 1509 1510 1510 1511 1511 1512 1512
1478 1480 1485 1481 1478 1473 1474 1473 1475 1478 1484 1488 1494 1495 1478 1479 1482 1485 1487 1490 1492 1494 1496 1497 1499 1501 1502 1503 1503 1504 1505 1505 1506 1506 1506 1506 1507 1507 1508 1508 1508 1509 1510 1510
1481 1480 1483 1487 1480 1474 1475 1474 1474 1478 1486 1488 1486 1485 1481 1480 1482 1485 1487 1490 1492 1493 1495 1497 1498 1499 1501 1501 1502 1503 1503 1503 1504 1504 1504 1504 1505 1505 1506 1506 1506 1507 1507 1507
1479 1480 1475 1472 1469 1470 1472 1473 1474 1477 1478 1484 1482 1480 1480 1480 1482 1485 1487 1489 1491 1493 1495 1496 1497 1498 1499 1500 1500 1501 1501 1502 1502 1502 1503 1503 1503 1503 1504 1504 1504 1504 1504 1505
1477 1479 1476 1474 1470 1469 1471 1470 1471 1473 1474 1476 1477 1479 1477 1479 1482 1484 1487 1489 1491 1493 1494 1495 1496 1497 1498 1498 1499 1499 1500 1500 1500 1500 1501 1501 1501 1501 1501 1501 1501 1502 1502 1502
1478 1479 1480 1479 1470 1472 1475 1468 1469 1470 1470 1473 1478 1478 1477 1479 1482 1485 1487 1489 1491 1492 1493 1494 1495 1496 1497 1497 1497 1498 1498 1499 1499 1499 1499 1499 1498 1498 1498 1498 1498 1498 1499 1499
1478 1479 1479 1479 1478 1486 1473 1463 1465 1469 1470 1471 1473 1475 1478 1480 1483 1485 1487 1488 1490 1492 1493 1494 1494 1495 1496 1496 1496 1496 1497 1497 1497 1497 1497 1497 1496 1496 1496 1496 1495 1495 1496 1496
1475 1478 1480 1480 1482 1477 1469 1465 1466 1470 1473 1471 1473 1476 1479 1481 1483 1485 1486 1488 1489 1491 1492 1492 1493 1494 1494 1494 1494 1494 1495 1495 1495 1495 1495 1495 1494 1494 1493 1493 1493 1493 1493 1493
1473 1474 1479 1479 1483 1483 1473 1466 1466 1470 1476 1474 1474 1476 1478 1480 1484 1486 1486 1487 1488 1489 1490 1491 1491 1492 1492 1492 1492 1492 1493 1493 1493 1493 1493 1493 1493 1492 1491 1491 1491 1491 1491 1491
1475 1475 1477 1479 1479 1474 1469 1467 1469 1480 1480 1475 1475 1476 1478 1481 1483 1485 1485 1486 1486 1487 1488 1489 1489 1489 1490 1490 1490 1490 1491 1491 1491 1491 1491 1491 1490 1490 1490 1489 1489 1489 1489 1488
1473 1475 1475 1475 1478 1480 1471 1470 1474 1477 1475 1475 1476 1478 1479 1481 1482 1483 1484 1484 1485 1485 1486 1487 1487 1487 1488 1488 1488 1488 1488 1489 1489 1488 1488 1488 1488 1487 1487 1487 1486 1486 1486 1486
1469 1471 1473 1475 1477 1474 1473 1473 1475 1475 1476 1477 1478 1479 1480 1481 1482 1482 1483 1483 1483 1484 1484 1484 1485 1485 1485 1486 1486 1486 1486 1486 1486 1486 1485 1485 1485 1484 1484 1484 1483 1484 1483 1483
1468 1468 1470 1473 1473 1473 1474 1475 1475 1476 1477 1477 1478 1479 1480 1480 1480 1481 1482 1482 1482 1482 1482 1482 1483 1483 1483 1484 1484 1484 1484 1484 1484 1483 1483 1482 1482 1482 1481 1481 1481 1481 1480 1480
1471 1471 1471 1472 1473 1473 1474 1475 1476 1477 1477 1477 1478 1479 1479 1479 1479 1480 1480 1480 1480 1480 1480 1480 1481 1481 1481 1481 1482 1482 1482 1481 1481 1481 1480 1480 1479 1479 1478 1478 1478 1478 1477 1478
1471 1472 1473 1473 1473 1474 1475 1476 1476 1476 1477 1477 1477 1478 1478 1478 1478 1478 1478 1478 1478 1478 1478 1479 1479 1479 1479 1479 1479 1479 1479 1479 1478 1478 1477 1477 1476 1476 1476 1475 1475 1475 1475 1475